Showing default

BLACKJACK ACES-3, 56950

Orbit data source: Space-Track

BLACKJACK ACES-3, 56950 is a payload satellite owned by DARPA (US) in SSO that was launched on Mon, 12 Jun 2023 UTC via an FALCON 9 launch vehicle from the Air Force Western Test Range (AFWTR). Payload-class satellites include a variety of spacecraft equipped with specific instruments for various scientific and technological missions. These include communications satellites like Starlink; space stations such as the ISS; scientific satellites like the Hubble; Earth observation satellites from companies like Planet Labs, Umbra, and HawkEye 360; GPS; miniature CubeSats for education and research; and military/defense satellites.

Loading next visibility...
Identifier
56950, 2023-084U
Orbit
SSO
Country
Flag of USUS
Related business
Manufacturer
BLCAN/LMSS
Mission
Operational Defense Communications
Bus & Motor
X-SAT, Unknown motor
Mass
~200 kg wet, ~200 kg dry
Launch date (UTC)
2023-06-12 (3 years ago)
Launch vehicle
FALCON 9
Launch site
Air Force Western Test Range (AFWTR)
Object type
Payload
Rocket body
Debris
Shape & HBR
Box, 3.6 m
Radar Cross Section
0.875 m², Large (>1 m²)

Expand to show TLE details & history
Last TLE update: 9 hours ago

TLE from 9 hours ago
0 BLACKJACK ACES-3
1 56950U 23084U   26207.30821785  .00005598  00000-0  27177-3 0  9997
2 56950  97.6251 342.8164 0001671 176.5655 183.5590 15.18882527173105
Epoch: 2026-07-26T07:23Z
TLE epoch observation values (Epoch: 2026-07-26T07:23:50.022Z)
Latitude
-0.00007°
Longitude
-72.15003°
Altitude
513.448 km
Speed
7.606 km/s
True Right ascension
22h 51m 15s
True Declination
0° 00' 00"
Sunlit
Object was in full shadow at epoch
Visualization orbit readout
Latitude
Unknown
Longitude
Unknown
Altitude
Unknown
Speed
Unknown
Apparent Right ascension
Unknown
Apparent Declination
Unknown
Sunlit
N/A
Visualization observer readout
Local Sidereal Time
05:18:15
Azimuth
Unknown
Elevation
Unknown
Doppler factor
Unknown
Orbital elements
Apogee altitude
507.344 km
Perigee altitude
505.043 km
Semi-major axis
6,884.33 km
Eccentricity
0.00017
Inclination
97.6251°
RAAN
342.8164°
Arg. of periapsis
176.5655°
True anomaly
183.55781°
Mean anomaly
183.559°
Eccentric anomaly
183.55841°
Mean motion
3.79971 °/min
Orbital period
94.74 mins
BSTAR
0.00027177
Loading maneuver chart data...
Computing Atmospheric mass density...

Documentation

Showing up to 5 results
|